When you browse on this site, cookies collect data to enhance your experience and personalize the content and advertising you see.
Visit our Privacy Policy to learn more. By continuing to use the site, you agree to this use of cookies and data.
  • în România
  • Lista ţărilor
  • Pe 7 zile
  • Temperatura apei
  • Meteo pe hartă
  • Widget-uri
  • user-avatar
    Intrare

    Meteo pe oră la Bucureşti

    Astăzi, 6 Iunie, Sâmbătă

    Timp Temperatura Precipitaţii Vânt Presiune Umiditate
    00:00 +21°C° 0 mm 1 m/s 749 mmHg 70%
    01:00 +21°C° 0 mm 1 m/s 749 mmHg 71%
    02:00 +20°C° 0 mm 1 m/s 749 mmHg 72%
    03:00 +20°C° 0 mm 1 m/s 750 mmHg 72%
    04:00 +20°C° 0 mm 1 m/s 750 mmHg 73%
    05:00 +18°C° 0 mm 2 m/s 750 mmHg 74%
    06:00 +20°C° 0 mm 2 m/s 750 mmHg 69%
    07:00 +22°C° 0 mm 3 m/s 750 mmHg 65%
    08:00 +24°C° 0 mm 3 m/s 750 mmHg 61%
    09:00 +26°C° 0 mm 4 m/s 750 mmHg 56%
    10:00 +27°C° 0 mm 4 m/s 750 mmHg 52%
    11:00 +29°C° 0 mm 5 m/s 751 mmHg 48%
    12:00 +29°C° 0 mm 5 m/s 750 mmHg 44%
    13:00 +30°C° 0 mm 5 m/s 750 mmHg 41%
    14:00 +30°C° 0 mm 5 m/s 750 mmHg 38%
    15:00 +30°C° 0 mm 5 m/s 750 mmHg 39%
    16:00 +29°C° 0 mm 5 m/s 750 mmHg 40%
    17:00 +29°C° 0 mm 5 m/s 749 mmHg 41%
    18:00 +27°C° 0 mm 4 m/s 749 mmHg 47%
    19:00 +25°C° 0 mm 4 m/s 750 mmHg 53%
    20:00 +24°C° 0 mm 3 m/s 750 mmHg 59%
    21:00 +22°C° 0 mm 3 m/s 750 mmHg 61%
    22:00 +21°C° 0 mm 3 m/s 751 mmHg 63%
    23:00 +20°C° 0 mm 3 m/s 751 mmHg 65%

    Mâine, 7 Iunie, Duminică

    Timp Temperatura Precipitaţii Vânt Presiune Umiditate
    00:00 +19°C° 0 mm 3 m/s 751 mmHg 67%
    01:00 +19°C° 0 mm 3 m/s 751 mmHg 69%
    02:00 +18°C° 0 mm 3 m/s 751 mmHg 71%
    03:00 +17°C° 0 mm 3 m/s 751 mmHg 73%
    04:00 +17°C° 0 mm 4 m/s 750 mmHg 76%
    05:00 +17°C° 0 mm 4 m/s 750 mmHg 78%
    06:00 +18°C° 0 mm 4 m/s 750 mmHg 75%
    07:00 +20°C° 0 mm 5 m/s 750 mmHg 72%
    08:00 +21°C° 0 mm 5 m/s 750 mmHg 69%
    09:00 +22°C° 0.1 mm 5 m/s 750 mmHg 67%
    10:00 +23°C° 0.1 mm 4 m/s 750 mmHg 65%
    11:00 +25°C° 0.1 mm 4 m/s 750 mmHg 63%
    12:00 +25°C° 0.3 mm 5 m/s 750 mmHg 60%
    13:00 +26°C° 0.3 mm 5 m/s 750 mmHg 57%
    14:00 +27°C° 0.3 mm 5 m/s 749 mmHg 54%
    15:00 +27°C° 0.1 mm 5 m/s 749 mmHg 53%
    16:00 +27°C° 0.1 mm 5 m/s 749 mmHg 51%
    17:00 +27°C° 0.1 mm 6 m/s 749 mmHg 50%
    18:00 +25°C° 0.2 mm 5 m/s 749 mmHg 58%
    19:00 +22°C° 0.2 mm 5 m/s 749 mmHg 66%
    20:00 +21°C° 0.2 mm 4 m/s 749 mmHg 73%
    21:00 +20°C° 0.2 mm 4 m/s 749 mmHg 78%
    22:00 +19°C° 0.2 mm 3 m/s 749 mmHg 82%
    23:00 +18°C° 0.2 mm 3 m/s 749 mmHg 87%

    Poimâine, 8 Iunie, Luni

    Timp Temperatura Precipitaţii Vânt Presiune Umiditate
    00:00 +17°C° 0.1 mm 3 m/s 749 mmHg 89%
    01:00 +17°C° 0.1 mm 3 m/s 749 mmHg 90%
    02:00 +16°C° 0.1 mm 3 m/s 749 mmHg 92%
    03:00 +16°C° 0.1 mm 3 m/s 749 mmHg 93%
    04:00 +16°C° 0.1 mm 2 m/s 749 mmHg 93%
    05:00 +16°C° 0.1 mm 2 m/s 749 mmHg 93%
    06:00 +17°C° 0 mm 2 m/s 749 mmHg 89%
    07:00 +19°C° 0 mm 3 m/s 749 mmHg 84%
    08:00 +20°C° 0 mm 3 m/s 750 mmHg 80%
    09:00 +23°C° 0 mm 2 m/s 750 mmHg 73%
    10:00 +25°C° 0 mm 2 m/s 750 mmHg 67%
    11:00 +26°C° 0 mm 2 m/s 750 mmHg 60%
    12:00 +27°C° 0.1 mm 2 m/s 750 mmHg 56%
    13:00 +28°C° 0.1 mm 2 m/s 749 mmHg 52%
    14:00 +29°C° 0.1 mm 2 m/s 749 mmHg 47%
    15:00 +29°C° 0.1 mm 2 m/s 749 mmHg 48%
    16:00 +29°C° 0.1 mm 2 m/s 749 mmHg 50%
    17:00 +28°C° 0.1 mm 2 m/s 749 mmHg 51%
    18:00 +27°C° 0.2 mm 2 m/s 749 mmHg 56%
    19:00 +25°C° 0.2 mm 2 m/s 749 mmHg 62%
    20:00 +24°C° 0.2 mm 1 m/s 749 mmHg 67%
    21:00 +23°C° 0 mm 1 m/s 749 mmHg 69%
    22:00 +23°C° 0 mm 1 m/s 749 mmHg 71%
    23:00 +22°C° 0 mm 1 m/s 749 mmHg 73%

    9 Iunie, Marţi

    Timp Temperatura Precipitaţii Vânt Presiune Umiditate
    00:00 +22°C° 0 mm 1 m/s 749 mmHg 75%
    01:00 +21°C° 0 mm 1 m/s 749 mmHg 76%
    02:00 +21°C° 0 mm 1 m/s 749 mmHg 77%
    03:00 +20°C° 0 mm 1 m/s 749 mmHg 79%
    04:00 +20°C° 0 mm 1 m/s 749 mmHg 80%
    05:00 +20°C° 0 mm 1 m/s 749 mmHg 82%
    06:00 +21°C° 0 mm 1 m/s 750 mmHg 77%
    07:00 +23°C° 0 mm 1 m/s 750 mmHg 72%
    08:00 +24°C° 0 mm 1 m/s 750 mmHg 68%
    09:00 +25°C° 0 mm 1 m/s 750 mmHg 62%
    10:00 +27°C° 0 mm 1 m/s 750 mmHg 57%
    11:00 +28°C° 0 mm 1 m/s 750 mmHg 52%
    12:00 +29°C° 0 mm 1 m/s 750 mmHg 49%
    13:00 +30°C° 0 mm 1 m/s 750 mmHg 46%
    14:00 +31°C° 0 mm 2 m/s 749 mmHg 42%
    15:00 +30°C° 0 mm 2 m/s 749 mmHg 43%
    16:00 +30°C° 0 mm 2 m/s 749 mmHg 44%
    17:00 +30°C° 0 mm 2 m/s 749 mmHg 45%
    18:00 +29°C° 0 mm 2 m/s 749 mmHg 50%
    19:00 +27°C° 0 mm 2 m/s 749 mmHg 55%
    20:00 +26°C° 0 mm 1 m/s 749 mmHg 60%
    21:00 +24°C° 0.3 mm 2 m/s 750 mmHg 66%
    22:00 +23°C° 0.3 mm 2 m/s 750 mmHg 72%
    23:00 +21°C° 0.3 mm 2 m/s 750 mmHg 78%

    10 Iunie, Miercuri

    Timp Temperatura Precipitaţii Vânt Presiune Umiditate
    00:00 +20°C° 0 mm 2 m/s 750 mmHg 79%
    01:00 +20°C° 0 mm 2 m/s 750 mmHg 80%
    02:00 +20°C° 0 mm 1 m/s 750 mmHg 82%
    03:00 +20°C° 0 mm 1 m/s 750 mmHg 82%
    04:00 +20°C° 0 mm 1 m/s 750 mmHg 83%
    05:00 +18°C° 0 mm 0 m/s 750 mmHg 84%
    06:00 +22°C° 0 mm 1 m/s 750 mmHg 78%
    07:00 +23°C° 0 mm 1 m/s 750 mmHg 72%
    08:00 +25°C° 0 mm 1 m/s 751 mmHg 66%
    09:00 +27°C° 0 mm 1 m/s 751 mmHg 60%
    10:00 +28°C° 0 mm 1 m/s 751 mmHg 55%
    11:00 +30°C° 0 mm 1 m/s 751 mmHg 49%
    12:00 +31°C° 0 mm 2 m/s 750 mmHg 46%
    13:00 +31°C° 0 mm 2 m/s 750 mmHg 43%
    14:00 +33°C° 0 mm 3 m/s 750 mmHg 40%
    15:00 +32°C° 0 mm 2 m/s 749 mmHg 39%
    16:00 +32°C° 0 mm 2 m/s 749 mmHg 38%
    17:00 +32°C° 0 mm 2 m/s 749 mmHg 38%
    18:00 +30°C° 0 mm 2 m/s 749 mmHg 42%
    19:00 +29°C° 0 mm 2 m/s 749 mmHg 46%
    20:00 +27°C° 0 mm 1 m/s 749 mmHg 50%
    21:00 +26°C° 0.3 mm 2 m/s 750 mmHg 55%
    22:00 +24°C° 0.3 mm 2 m/s 750 mmHg 61%
    23:00 +23°C° 0.3 mm 2 m/s 750 mmHg 66%

    11 Iunie, Joi

    Timp Temperatura Precipitaţii Vânt Presiune Umiditate
    00:00 +23°C° 0.6 mm 2 m/s 750 mmHg 70%
    01:00 +21°C° 0.6 mm 2 m/s 750 mmHg 74%
    02:00 +22°C° 0.6 mm 1 m/s 750 mmHg 78%
    03:00 +21°C° 0 mm 1 m/s 750 mmHg 78%
    04:00 +21°C° 0 mm 1 m/s 749 mmHg 78%
    05:00 +20°C° 0 mm 2 m/s 749 mmHg 78%
    06:00 +22°C° 0 mm 1 m/s 749 mmHg 73%
    07:00 +24°C° 0 mm 1 m/s 749 mmHg 69%
    08:00 +25°C° 0 mm 1 m/s 749 mmHg 64%
    09:00 +27°C° 0 mm 1 m/s 749 mmHg 58%
    10:00 +28°C° 0 mm 1 m/s 749 mmHg 52%
    11:00 +30°C° 0 mm 1 m/s 749 mmHg 46%
    12:00 +30°C° 0 mm 1 m/s 749 mmHg 44%
    13:00 +31°C° 0 mm 1 m/s 749 mmHg 42%
    14:00 +32°C° 0 mm 1 m/s 748 mmHg 40%
    15:00 +31°C° 0 mm 1 m/s 748 mmHg 41%
    16:00 +31°C° 0 mm 2 m/s 748 mmHg 42%
    17:00 +31°C° 0 mm 2 m/s 747 mmHg 43%
    18:00 +29°C° 0.2 mm 2 m/s 748 mmHg 49%
    19:00 +27°C° 0.2 mm 2 m/s 748 mmHg 56%
    20:00 +25°C° 0.2 mm 2 m/s 748 mmHg 62%
    21:00 +24°C° 1.5 mm 2 m/s 748 mmHg 70%
    22:00 +22°C° 1.5 mm 3 m/s 748 mmHg 77%
    23:00 +20°C° 1.5 mm 3 m/s 749 mmHg 85%
    Arată mai mult